Domov               UVHVVR             MKGP            O straneh              
ZDRAVSTVENO VARSTVO RASTLIN
  MREŽA AGROMET. POSTAJ
 ► PROGNOSTIČNA OBVESTILA
AGROMETEOROLOŠKI PODATKI -
ARSO
OBVLADOVANJE TVEGANJ ZARADI
NEUGODNIH VREMENSKIH RAZMER
  ► NARAVNE NESREČE
  ► SUŠA/MOČA
  ► NAMAKANJE
  ► ŽLED (gozdarstvo)
KARTOGRAFSKI PRIKAZI
SPLETNE POVEZAVE
PROJEKTI IN PUBLIKACIJE

AGROMETEOROLOŠKA MREŽA: VREMENSKE POSTAJE IN FENOLOŠKA OPAZOVANJA

Pregled podatkov za lokacijo Purisima, meteorološka postaja 863702

Pregled senzorjev na lokaciji

ID Ime Zadnja
vrednost
Datum
zadnje
spremembe
Tip
senzorja
4192 Omočenost lista (U) 0 U 18.7.2018 00:45 A730WET
4193 Padavine (mm) 0 mm 18.7.2018 00:45 Rain-O-Matic
4191 Relativna vlaga 2 m (% RH) 85,05 % RH 18.7.2018 00:45 50YA
4214 Temperatura tal 5 cm (°C) 11,57 °C 18.7.2018 00:45 Generic -20 - +40 °C
4190 Temperatura 2 m (°C) 18,68 °C 18.7.2018 00:45 50YA

Pregled podatkov zadnjih 24 ur

Zap.
št.
Datum in čas Purisima
Omočenost
lista
Padavine Relativna
vlaga
2
m
Temperatura
tal
5
cm
Temperatura
2
m
1 18.7.2018 01:00
2 18.7.2018 00:30
3 18.7.2018 00:00 0 0 85,1 11,6 18,7
4 17.7.2018 23:30 0 0 81,6 11,6 19
5 17.7.2018 23:00 0 0 84,4 11,8 18,9
6 17.7.2018 22:30 0 0 81,5 11,9 19,2
7 17.7.2018 22:00 0 0 80,8 12,1 19,5
8 17.7.2018 21:30 0 0 79,7 12,1 20,1
9 17.7.2018 21:00 0 0 71,7 12 21,2
10 17.7.2018 20:30 0 0 68,3 12,6 22
11 17.7.2018 20:00 0 0 64,7 12,6 22,9
12 17.7.2018 19:30 0 0 58,3 12,3 24,8
13 17.7.2018 19:00 0 0 55,4 12,5 25,9
14 17.7.2018 18:30 0 0 54,5 12,1 26,2
15 17.7.2018 18:00 0 0 54,4 11,7 26,8
16 17.7.2018 17:30 0 0 51,5 11,8 27
17 17.7.2018 17:00 0 0 50 12,2 27,1
18 17.7.2018 16:30 0 0 59 12 28,4
19 17.7.2018 16:00 0 0 64,1 11,8 28,1
20 17.7.2018 15:30 0 0 55,8 10,9 27,9
21 17.7.2018 15:00 0 0 54,9 9,6 27,8
22 17.7.2018 14:30 0 0 57,7 10,1 29,1
23 17.7.2018 14:00 0 0 63,9 9,6 28,5
24 17.7.2018 13:30 0 0 67,1 9,2 28
25 17.7.2018 13:00 0 0 67,4 9,5 28,6
26 17.7.2018 12:30 0 0 68,9 10,4 28,6
27 17.7.2018 12:00 0 0 69,5 13,2 28,4
28 17.7.2018 11:30 0 0 69,4 14,5 28
29 17.7.2018 11:00 0 0 66,3 13,4 27,8
30 17.7.2018 10:30 0 0 69 11,7 27,2
31 17.7.2018 10:00 0 0 70,7 10,8 26,5
32 17.7.2018 09:30 0 0 69 11,7 26,6
33 17.7.2018 09:00 0 0 71,7 11,4 26,2
34 17.7.2018 08:30 0 0 75,3 10,6 25,4
35 17.7.2018 08:00 0 0 78,1 10,4 24,6
36 17.7.2018 07:30 10 0 83,6 9,9 23,6
37 17.7.2018 07:00 10 0 90 9,8 22,4
38 17.7.2018 06:30 10 0 93,1 10,2 21,6
39 17.7.2018 06:00 10 0 97,9 10,6 20,3
40 17.7.2018 05:30 10 0 98,4 10,6 19,4
41 17.7.2018 05:00 10 0 97,8 10,7 19,1
42 17.7.2018 04:30 10 0 96,4 11,4 19,2
43 17.7.2018 04:00 10 0 95,5 11,4 19,3
44 17.7.2018 03:30 10 0 97 11,5 19,4
45 17.7.2018 03:00 10 0 96,2 11,6 19,6
46 17.7.2018 02:30 10 0 96,7 10,8 20,1
47 17.7.2018 02:00 10 0 97,9 10,8 20,1
48 17.7.2018 01:30 10 0 97,8 11,6 20,2
© 2011 Ministrstvo za kmetijstvo, gozdarstvo in prehrano. Vse pravice pridržane.